| time (UTC) | temp F | wind direction | speed knots | gust knots | rain 1hr in | rain 24hr in | rain mn in | humidity % | barometer mb |
| 20260906000104 | 73 | 144 | 4.3 | 19.1 | 0.00 | 0.00 | 0.00 | 31 | 1015.2 |
| 20260905234603 | 72 | 147 | 7.8 | 18.2 | 0.00 | 0.00 | 0.00 | 30 | 1015.2 |
| 20260905233046 | 73 | 172 | 6.1 | 14.8 | 0.00 | 0.00 | 0.00 | 31 | 1015.0 |
| 20260905231546 | 72 | 162 | 7.8 | 18.2 | 0.00 | 0.00 | 0.00 | 32 | 1015.1 |
| 20260905230053 | 72 | 169 | 8.7 | 20.0 | 0.00 | 0.00 | 0.00 | 30 | 1015.1 |
| 20260905224549 | 73 | 143 | 8.7 | 20.9 | 0.00 | 0.00 | 0.00 | 29 | 1015.2 |
| 20260905223057 | 74 | 197 | 9.6 | 17.4 | 0.00 | 0.00 | 0.00 | 29 | 1015.3 |
| 20260905221547 | 73 | 171 | 9.6 | 20.9 | 0.00 | 0.00 | 0.00 | 29 | 1015.5 |
| 20260905220100 | 74 | 193 | 6.1 | 14.8 | 0.00 | 0.00 | 0.00 | 29 | 1015.6 |
| 20260905214552 | 73 | 190 | 8.7 | 16.5 | 0.00 | 0.00 | 0.00 | 27 | 1015.6 |
| 20260905213047 | 73 | 209 | 7.0 | 16.5 | 0.00 | 0.00 | 0.00 | 28 | 1015.5 |
| 20260905211547 | 72 | 254 | 7.8 | 20.0 | 0.00 | 0.00 | 0.00 | 27 | 1015.6 |
| 20260905210055 | 73 | 196 | 7.0 | 17.4 | 0.00 | 0.00 | 0.00 | 27 | 1015.7 |
| 20260905204559 | 72 | 182 | 5.2 | 13.9 | 0.00 | 0.00 | 0.00 | 29 | 1015.7 |
| 20260905203059 | 72 | 163 | 8.7 | 22.6 | 0.00 | 0.00 | 0.00 | 29 | 1015.7 |
| 20260905201555 | 72 | 238 | 7.8 | 17.4 | 0.00 | 0.00 | 0.00 | 30 | 1015.8 |
| 20260905200105 | 72 | 211 | 9.6 | 20.9 | 0.00 | 0.00 | 0.00 | 30 | 1015.6 |
| 20260905194551 | 71 | 188 | 8.7 | 23.5 | 0.00 | 0.00 | 0.00 | 32 | 1015.8 |
| 20260905193106 | 71 | 232 | 9.6 | 21.7 | 0.00 | 0.00 | 0.00 | 31 | 1015.9 |
| 20260905191600 | 71 | 198 | 7.8 | 18.2 | 0.00 | 0.00 | 0.00 | 32 | 1016.1 |
| 20260905184558 | 70 | 196 | 5.2 | 13.9 | 0.00 | 0.00 | 0.00 | 33 | 1016.5 |
| 20260905183050 | 69 | 292 | 0.0 | 4.3 | 0.00 | 0.00 | 0.00 | 41 | 1016.7 |
| 20260905181601 | 68 | 177 | 0.9 | 5.2 | 0.00 | 0.00 | 0.00 | 42 | 1016.8 |
| 20260905180100 | 67 | 0 | 0.9 | 3.5 | 0.00 | 0.00 | 0.00 | 45 | 1016.8 |
| 20260905174549 | 66 | 213 | 1.7 | 5.2 | 0.00 | 0.00 | 0.00 | 43 | 1017.1 |
| 20260905173056 | 67 | 0 | 0.0 | 0.9 | 0.00 | 0.00 | 0.00 | 44 | 1017.2 |
| 20260905171552 | 64 | 0 | 0.0 | 2.6 | 0.00 | 0.00 | 0.00 | 47 | 1017.4 |
| 20260905170100 | 63 | 236 | 0.0 | 2.6 | 0.00 | 0.00 | 0.00 | 50 | 1017.3 |
| 20260905164550 | 63 | 15 | 0.0 | 3.5 | 0.00 | 0.00 | 0.00 | 50 | 1017.4 |
| 20260905163052 | 61 | 0 | 0.0 | 0.0 | 0.00 | 0.00 | 0.00 | 53 | 1017.5 |
| 20260905161551 | 58 | 0 | 0.0 | 0.0 | 0.00 | 0.00 | 0.00 | 59 | 1017.6 |
| 20260905160051 | 57 | 326 | 0.0 | 1.7 | 0.00 | 0.00 | 0.00 | 59 | 1017.6 |
| 20260905154557 | 56 | 0 | 0.0 | 1.7 | 0.00 | 0.00 | 0.00 | 64 | 1017.7 |
| 20260905153051 | 53 | 0 | 0.0 | 0.0 | 0.00 | 0.00 | 0.00 | 66 | 1017.7 |
| 20260905151558 | 51 | 0 | 0.0 | 0.0 | 0.00 | 0.00 | 0.00 | 69 | 1017.7 |
| 20260905150100 | 48 | 0 | 0.0 | 1.7 | 0.00 | 0.00 | 0.00 | 74 | 1017.8 |
| 20260905144554 | 46 | 0 | 0.0 | 0.0 | 0.00 | 0.00 | 0.00 | 78 | 1017.8 |
| 20260905143100 | 45 | 0 | 0.0 | 0.9 | 0.00 | 0.00 | 0.00 | 77 | 1017.8 |
| 20260905141553 | 44 | 0 | 0.0 | 1.7 | 0.00 | 0.00 | 0.00 | 79 | 1017.6 |
| 20260905134600 | 44 | 0 | 0.0 | 2.6 | 0.00 | 0.00 | 0.00 | 79 | 1017.3 |
| 20260905133055 | 45 | 0 | 0.0 | 4.3 | 0.00 | 0.00 | 0.00 | 77 | 1017.2 |
| 20260905131555 | 46 | 0 | 0.0 | 0.0 | 0.00 | 0.00 | 0.00 | 75 | 1017.0 |
| 20260905130056 | 46 | 0 | 0.0 | 5.2 | 0.00 | 0.00 | 0.00 | 76 | 1016.9 |
| 20260905124556 | 45 | 0 | 0.0 | 2.6 | 0.00 | 0.00 | 0.00 | 76 | 1016.8 |
| 20260905123056 | 45 | 297 | 0.0 | 6.1 | 0.00 | 0.00 | 0.00 | 76 | 1016.9 |
| 20260905121550 | 44 | 0 | 0.0 | 6.1 | 0.00 | 0.00 | 0.00 | 78 | 1016.7 |
| 20260905120049 | 44 | 0 | 0.0 | 2.6 | 0.00 | 0.00 | 0.00 | 77 | 1017.0 |
| 20260905114555 | 45 | 0 | 0.0 | 1.7 | 0.00 | 0.00 | 0.00 | 76 | 1016.8 |
| 20260905113048 | 46 | 260 | 0.0 | 6.1 | 0.00 | 0.00 | 0.00 | 75 | 1016.8 |
| 20260905111640 | 45 | 0 | 0.0 | 7.0 | 0.00 | 0.00 | 0.00 | 76 | 1016.9 |
| 20260905110045 | 46 | 150 | 0.0 | 5.2 | 0.00 | 0.00 | 0.00 | 73 | 1016.9 |
| 20260905104550 | 47 | 0 | 0.0 | 2.6 | 0.00 | 0.00 | 0.00 | 73 | 1016.7 |
| 20260905103049 | 47 | 0 | 0.0 | 2.6 | 0.00 | 0.00 | 0.00 | 72 | 1016.7 |
| 20260905101556 | 48 | 0 | 0.0 | 3.5 | 0.00 | 0.00 | 0.00 | 71 | 1016.8 |
| 20260905100108 | 49 | 0 | 0.0 | 2.6 | 0.00 | 0.00 | 0.00 | 70 | 1016.9 |
| 20260905094556 | 49 | 346 | 0.0 | 2.6 | 0.00 | 0.00 | 0.00 | 69 | 1017.0 |
| 20260905093053 | 49 | 18 | 0.0 | 3.5 | 0.00 | 0.00 | 0.00 | 69 | 1016.8 |
| 20260905091547 | 50 | 0 | 0.0 | 1.7 | 0.00 | 0.00 | 0.00 | 66 | 1017.0 |
| 20260905090050 | 52 | 0 | 0.0 | 0.0 | 0.00 | 0.00 | 0.00 | 64 | 1016.7 |
| 20260905084551 | 54 | 0 | 0.0 | 0.9 | 0.00 | 0.00 | 0.00 | 62 | 1016.9 |
| 20260905083046 | 52 | 0 | 0.0 | 1.7 | 0.00 | 0.00 | 0.00 | 64 | 1016.8 |
| 20260905081604 | 52 | 0 | 0.9 | 5.2 | 0.00 | 0.00 | 0.00 | 64 | 1017.0 |
| 20260905080059 | 52 | 0 | 0.0 | 3.5 | 0.00 | 0.00 | 0.00 | 64 | 1016.9 |
| 20260905074548 | 52 | 0 | 0.0 | 0.0 | 0.00 | 0.00 | 0.00 | 64 | 1017.1 |
| 20260905073050 | 52 | 0 | 0.0 | 6.1 | 0.00 | 0.00 | 0.00 | 61 | 1016.7 |
| 20260905071547 | 52 | 211 | 0.0 | 3.5 | 0.00 | 0.00 | 0.00 | 62 | 1016.8 |
| 20260905070100 | 52 | 0 | 0.0 | 1.7 | 0.00 | 0.00 | 0.00 | 63 | 1016.9 |
| 20260905064550 | 52 | 0 | 0.0 | 3.5 | 0.00 | 0.00 | 0.00 | 64 | 1016.7 |
| 20260905063059 | 52 | 0 | 0.0 | 0.0 | 0.00 | 0.00 | 0.00 | 63 | 1016.7 |
| 20260905061611 | 54 | 0 | 0.0 | 0.0 | 0.00 | 0.00 | 0.00 | 61 | 1016.5 |
| 20260905060100 | 55 | 0 | 0.0 | 0.9 | 0.00 | 0.00 | 0.00 | 59 | 1016.3 |
| 20260905054551 | 55 | 0 | 0.0 | 1.7 | 0.00 | 0.00 | 0.00 | 60 | 1016.3 |
| 20260905053058 | 55 | 0 | 0.0 | 2.6 | 0.00 | 0.00 | 0.00 | 60 | 1016.1 |
| 20260905051554 | 55 | 0 | 0.0 | 5.2 | 0.00 | 0.00 | 0.00 | 58 | 1015.8 |
| 20260905044600 | 57 | 0 | 0.0 | 2.6 | 0.00 | 0.00 | 0.00 | 55 | 1015.7 |
| 20260905043048 | 57 | 294 | 3.5 | 7.8 | 0.00 | 0.00 | 0.00 | 55 | 1015.6 |
| 20260905041551 | 58 | 271 | 0.9 | 5.2 | 0.00 | 0.00 | 0.00 | 53 | 1015.7 |
| 20260905040052 | 57 | 0 | 0.0 | 8.7 | 0.00 | 0.00 | 0.00 | 54 | 1015.6 |
| 20260905034548 | 57 | 0 | 0.0 | 3.5 | 0.00 | 0.00 | 0.00 | 55 | 1015.5 |
| 20260905033048 | 58 | 223 | 0.9 | 3.5 | 0.00 | 0.00 | 0.00 | 55 | 1015.5 |
| 20260905031556 | 58 | 0 | 0.0 | 2.6 | 0.00 | 0.00 | 0.00 | 54 | 1015.2 |
| 20260905024558 | 60 | 0 | 0.9 | 6.1 | 0.00 | 0.00 | 0.00 | 50 | 1015.1 |
| 20260905023058 | 60 | 163 | 1.7 | 7.8 | 0.00 | 0.00 | 0.00 | 50 | 1015.1 |
| 20260905021555 | 61 | 169 | 1.7 | 11.3 | 0.00 | 0.00 | 0.00 | 48 | 1015.0 |
| 20260905020100 | 62 | 157 | 3.5 | 7.8 | 0.00 | 0.00 | 0.00 | 47 | 1015.0 |
| 20260905014556 | 63 | 153 | 0.9 | 9.6 | 0.00 | 0.00 | 0.00 | 46 | 1015.0 |
| 20260905013050 | 64 | 180 | 5.2 | 14.8 | 0.00 | 0.00 | 0.00 | 45 | 1015.1 |
| 20260905011549 | 63 | 166 | 4.3 | 10.4 | 0.00 | 0.00 | 0.00 | 46 | 1015.0 |
| 20260905010113 | 63 | 196 | 3.5 | 13.0 | 0.00 | 0.00 | 0.00 | 46 | 1015.1 |
| 20260905004613 | 64 | 174 | 3.5 | 18.2 | 0.00 | 0.00 | 0.00 | 46 | 1014.8 |
| 20260905003056 | 64 | 169 | 6.1 | 14.8 | 0.00 | 0.00 | 0.00 | 45 | 1014.6 |
| 20260905001558 | 64 | 172 | 5.2 | 13.9 | 0.00 | 0.00 | 0.00 | 45 | 1014.6 |